This demonstration page uses our WeatherBlox Daily Observations layout. Learn more.

Hourly Observations for February 5, 2019

Temp ( °F °C ) Dew Point ( °F °C ) Humidity (%) Winds ( mph kmh ) Pressure ( in mb ) Visibility ( mi km ) Precip ( " mm )
12:15 am 00:15 Partly Cloudy 36 2 36 2 100 100 Calm 30 1016 10 16.09344 0 0
12:35 am 00:35 Partly Cloudy 36 2 36 2 100 100 Calm 30 1016 10 16.09344 0 0
12:55 am 00:55 Clear 37 3 36 2 93 93 Calm 30 1016 10 16.09344 0 0
1:15 am 01:15 Mostly Cloudy 37 3 36 2 93 93 Calm 30 1016 10 16.09344 0 0
1:35 am 01:35 Cloudy 41 5 37 3 87 87 Calm 30 1016 10 16.09344 0 0
1:55 am 01:55 Cloudy 41 5 37 3 87 87 S 5 7 30 1016 10 16.09344 0 0
2:15 am 02:15 Cloudy 39 4 37 3 93 93 Calm 30 1016 10 16.09344 0 0
2:35 am 02:35 Cloudy 37 3 37 3 100 100 Calm 30 1016 10 16.09344 0 0
2:55 am 02:55 Cloudy 41 5 39 4 93 93 Calm 30 1016 10 16.09344 0 0
3:15 am 03:15 Cloudy 41 5 39 4 93 93 Calm 30 1016 10 16.09344 0 0
3:35 am 03:35 Cloudy 41 5 41 5 100 100 Calm 30 1016 10 16.09344 0 0
3:55 am 03:55 Cloudy 43 6 39 4 87 87 Calm 30 1016 10 16.09344 0 0
4:15 am 04:15 Cloudy 43 6 39 4 87 87 Calm 30 1016 10 16.09344 0 0
4:35 am 04:35 Cloudy 41 5 41 5 100 100 Calm 30 1016 10 16.09344 0 0
4:55 am 04:55 Cloudy 41 5 41 5 100 100 Calm 30 1016 10 16.09344 0 0
5:15 am 05:15 Cloudy 43 6 41 5 93 93 Calm 30 1016 10 16.09344 0 0
5:35 am 05:35 Cloudy 41 5 39 4 93 93 Calm 30 1016 10 16.09344 0 0
5:55 am 05:55 Cloudy 41 5 39 4 93 93 Calm 30 1016 10 16.09344 0 0
6:15 am 06:15 Mostly Cloudy 39 4 39 4 100 100 Calm 30 1016 10 16.09344 0 0
6:35 am 06:35 Partly Cloudy 39 4 39 4 100 100 Calm 30.03 1017 10 16.09344 0 0
6:55 am 06:55 Clear 41 5 39 4 93 93 Calm 30.03 1017 10 16.09344 0 0
7:15 am 07:15 Sunny 37 3 37 3 100 100 Calm 30.03 1017 10 16.09344 0 0
7:35 am 07:35 Sunny 37 3 37 3 100 100 Calm 30.03 1017 10 16.09344 0 0
7:55 am 07:55 Sunny 37 3 37 3 100 100 Calm 30.03 1017 10 16.09344 0 0
8:15 am 08:15 Mostly Cloudy 41 5 39 4 93 93 Calm 30.06 1018 10 16.09344 0 0
8:35 am 08:35 Cloudy 43 6 41 5 93 93 Calm 30.06 1018 10 16.09344 0 0
8:55 am 08:55 Cloudy 45 7 41 5 87 87 Calm 30.06 1018 10 16.09344 0 0
9:15 am 09:15 Cloudy 45 7 41 5 87 87 Calm 30.06 1018 10 16.09344 0 0
9:35 am 09:35 Cloudy 46 8 43 6 87 87 Calm 30.06 1018 10 16.09344 0 0
9:55 am 09:55 Mostly Cloudy 50 10 43 6 76 76 Calm 30.03 1017 10 16.09344 0 0
10:15 am 10:15 Partly Cloudy 54 12 45 7 72 72 Calm 30.03 1017 10 16.09344 0 0
10:35 am 10:35 Partly Cloudy 57 14 45 7 63 63 Calm 30.03 1017 10 16.09344 0 0
10:55 am 10:55 Partly Cloudy 59 15 45 7 59 59 Calm 30.03 1017 10 16.09344 0 0
11:15 am 11:15 Sunny 63 17 46 8 56 56 Calm 30.03 1017 10 16.09344 0 0
11:35 am 11:35 Sunny 64 18 50 10 60 60 NNW 3 6 30.03 1017 10 16.09344 0 0
11:55 am 11:55 Sunny 66 19 54 12 64 64 NNW 9 15 30.03 1017 10 16.09344 0 0
12:15 pm 12:15 Sunny 68 20 54 12 60 60 WNW 14 22 30 1016 10 16.09344 0 0
12:35 pm 12:35 Sunny 68 20 54 12 60 60 NNW 9 15 30 1016 10 16.09344 0 0
12:55 pm 12:55 Sunny 70 21 54 12 57 57 NW 10 17 30 1016 10 16.09344 0 0
1:15 pm 13:15 Sunny 70 21 54 12 57 57 WNW 13 20 30 1016 10 16.09344 0 0
1:35 pm 13:35 Sunny 70 21 54 12 57 57 WNW 5 7 30 1016 10 16.09344 0 0
1:55 pm 13:55 Partly Cloudy 72 22 54 12 53 53 WNW 9 15 30 1016 10 16.09344 0 0
2:15 pm 14:15 Partly Cloudy 72 22 54 12 53 53 W 12 19 30 1016 10 16.09344 0 0
2:35 pm 14:35 Cloudy 70 21 54 12 57 57 NNW 13 20 30 1016 10 16.09344 0 0
2:55 pm 14:55 Cloudy 70 21 54 12 57 57 NNW 10 17 30 1016 10 16.09344 0 0
3:15 pm 15:15 Mostly Cloudy 72 22 54 12 53 53 NNW 10 17 30 1016 10 16.09344 0 0
3:35 pm 15:35 Partly Cloudy 70 21 54 12 57 57 NW 10 17 30 1016 10 16.09344 0 0
3:55 pm 15:55 Partly Cloudy 70 21 54 12 57 57 NNW 9 15 30 1016 10 16.09344 0 0
4:15 pm 16:15 Mostly Cloudy 68 20 54 12 60 60 NW 15 24 30.03 1017 10 16.09344 0 0
4:35 pm 16:35 Cloudy 68 20 54 12 60 60 NW 13 20 30.03 1017 10 16.09344 0 0
4:55 pm 16:55 Mostly Cloudy 68 20 54 12 60 60 NNW 14 22 30.03 1017 10 16.09344 0 0
5:15 pm 17:15 Partly Cloudy 64 18 52 11 64 64 NW 12 19 30.03 1017 10 16.09344 0 0
5:35 pm 17:35 Sunny 64 18 52 11 64 64 NNW 8 13 30.03 1017 10 16.09344 0 0
5:55 pm 17:55 Clear 63 17 52 11 68 68 WNW 5 7 30.03 1017 10 16.09344 0 0
6:15 pm 18:15 Clear 61 16 52 11 72 72 Calm 30.06 1018 10 16.09344 0 0
6:35 pm 18:35 Clear 61 16 52 11 72 72 Calm 30.06 1018 10 16.09344 0 0
6:55 pm 18:55 Clear 61 16 52 11 72 72 Calm 30.06 1018 10 16.09344 0 0
7:15 pm 19:15 Clear 59 15 52 11 77 77 NNW 7 11 30.06 1018 10 16.09344 0 0
7:35 pm 19:35 Clear 59 15 50 10 72 72 Calm 30.06 1018 10 16.09344 0 0
7:55 pm 19:55 Clear 57 14 50 10 77 77 Calm 30.06 1018 10 16.09344 0 0
8:15 pm 20:15 Clear 57 14 52 11 82 82 Calm 30.06 1018 10 16.09344 0 0
8:35 pm 20:35 Clear 55 13 52 11 88 88 Calm 30.09 1019 10 16.09344 0 0
8:55 pm 20:55 Clear 55 13 50 10 82 82 NNE 5 7 30.09 1019 10 16.09344 0 0
9:15 pm 21:15 Clear 55 13 50 10 82 82 Calm 30.09 1019 10 16.09344 0 0
9:35 pm 21:35 Clear 54 12 50 10 88 88 Calm 30.09 1019 10 16.09344 0 0
9:55 pm 21:55 Clear 54 12 50 10 88 88 Calm 30.12 1020 10 16.09344 0 0
10:15 pm 22:15 Clear 52 11 50 10 94 94 Calm 30.12 1020 10 16.09344 0 0
10:35 pm 22:35 Clear 52 11 48 9 88 88 SSE 3 6 30.12 1020 10 16.09344 0 0
10:55 pm 22:55 Clear 48 9 46 8 94 94 Calm 30.15 1021 10 16.09344 0 0
11:15 pm 23:15 Clear 48 9 46 8 94 94 SSW 3 6 30.15 1021 10 16.09344 0 0
11:35 pm 23:35 Clear 48 9 46 8 94 94 S 3 6 30.15 1021 10 16.09344 0 0
11:55 pm 23:55 Clear 45 7 45 7 100 100 Calm 30.15 1021 10 16.09344 0 0

Powered by AerisWeather